Terminal Aerodrome Forecast
Issued by NWS Melbourne, FL

Home | Current Version | Previous Version | Text Only | Print | Product List | Glossary On
Versions: 1 2 3 4 5 6 7 8 9 10 11 12 13 14 15 16 17 18 19 20 21 22 23 24 25 26 27 28
000
FTUS42 KMLB 030537
TAFMCO
TAF
KMCO 030537Z 0306/0406 18006KT P6SM SCT120 BKN200
     FM031400 22012KT P6SM SCT035 BKN120 OVC200
     FM031700 23014G22KT P6SM VCTS SCT020CB BKN060 OVC100
      TEMPO 0318/0321 3SM TSRA BKN020CB OVC040
     FM032200 24011KT P6SM VCSH SCT020 BKN080 OVC120
      TEMPO 0322/0324 5SM SHRA BKN025
     FM040100 23006KT P6SM SCT030 BKN120 OVC200=

USA.gov is the U.S. government's official web portal to all federal, state and local government web resources and services.